Location: White Mills Observatory
(37.5374°N, 86.0303°W)
Time: 17:45:57
(UTC-04:00)

Amateur Radio Satellites - All Passes

Search period start: 31 August 2015 17:15
Search period end: 01 September 2015 17:15
Location: White Mills Observatory, 37.5374°N, 86.0303°W

Satellite Date Start Highest point End Downlink Frequencies (MHz)
Time Altitude Azimuth
SWISSCUBE 31 Aug 17:16:45 17:17:09 10° 297° (WNW) 17:17:14 437.505
AIST 2 31 Aug 17:20:54 17:25:08 81° 119° (ESE) 17:29:24 435.215
STARS 31 Aug 17:46:17 17:50:31 42° 287° (WNW) 17:54:41 437.465
CUTE-I 31 Aug 17:50:29 17:52:48 13° 63° (ENE) 17:55:24 437.470
ISS 31 Aug 18:03:04 18:05:18 17° 230° (SW) 18:07:27 145.825
KKS-1 31 Aug 18:05:08 18:08:07 17° 293° (WNW) 18:10:55 437.445
Cosmos 2499 31 Aug 18:08:59 18:16:14 30° 275° (W) 18:22:51 435.465 / 435.565
MOZHAYETS 4 31 Aug 18:13:35 18:18:11 88° 102° (ESE) 18:22:44
HORYU 2 31 Aug 18:13:49 18:16:15 14° 269° (W) 18:18:28 437.375
SRMSAT 31 Aug 18:20:02 18:22:41 13° 183° (S) 18:25:21 437.500
RS-15 31 Aug 18:20:56 18:31:43 60° 308° (NW) 18:42:55 29.354- 29.394
CUBESAT XI-V 31 Aug 18:32:55 18:33:11 10° 88° (E) 18:33:49 437.345
Cubesat XI-IV 31 Aug 18:42:21 18:47:17 41° 71° (ENE) 18:52:18 437.490
AIST 2 31 Aug 19:02:39 19:04:18 12° 318° (NW) 19:05:47 435.215
AO-7 31 Aug 19:11:15 19:12:56 10° 275° (W) 19:13:44 29.400- 29.500
AIST 1 31 Aug 19:16:55 19:18:43 13° 70° (ENE) 19:20:45
Cosmos 2491 31 Aug 19:22:36 19:25:17 12° 57° (ENE) 19:28:43 435.465 / 435.565
CUTE-I 31 Aug 19:27:01 19:32:19 75° 257° (WSW) 19:37:39 437.470
O/OREOS (USA 219) 31 Aug 19:29:32 19:33:32 32° 105° (ESE) 19:37:38 437.305
STRAND 1 31 Aug 19:50:43 19:54:16 20° 92° (E) 19:58:00 437.568
CUBESAT XI-V 31 Aug 20:06:34 20:11:12 69° 284° (WNW) 20:15:49 437.345
BRITE-PL 31 Aug 20:17:03 20:21:13 50° 73° (ENE) 20:25:44 437.365/2234.400
CUTE 1.7 + AOD 2 31 Aug 20:20:33 20:22:07 12° 67° (ENE) 20:23:54 437.475
Cubesat XI-IV 31 Aug 20:23:25 20:27:35 22° 267° (W) 20:31:37 437.490
CANX-2 31 Aug 20:33:01 20:35:58 19° 69° (ENE) 20:39:04 2200.000
HO-68 31 Aug 20:36:36 20:43:01 39° 66° (ENE) 20:49:35 435.675
PRISM 31 Aug 20:39:05 20:42:57 40° 99° (E) 20:46:51 437.425
RS-15 31 Aug 20:39:23 20:47:24 21° 338° (NNW) 20:55:22 29.354- 29.394
GOMX 1 31 Aug 20:46:49 20:51:12 62° 75° (ENE) 20:55:57 467.674
AIST 1 31 Aug 20:52:33 20:56:44 48° 266° (W) 21:00:54
SEEDS 31 Aug 20:54:28 20:57:46 23° 71° (ENE) 21:01:11 437.485
DOVE 4 31 Aug 21:01:19 21:05:43 52° 74° (ENE) 21:10:29 437.250
O/OREOS (USA 219) 31 Aug 21:09:27 21:13:03 22° 301° (WNW) 21:16:35 437.305
Cosmos 2491 31 Aug 21:15:28 21:24:12 70° 81° (E) 21:32:58 435.465 / 435.565
COMPASS 1 31 Aug 21:16:16 21:19:58 31° 72° (ENE) 21:23:43 437.405
YUBILEINY 31 Aug 21:21:09 21:28:44 36° 87° (E) 21:36:33 435.215
AAUSAT CUBESAT 2 31 Aug 21:26:32 21:30:19 34° 73° (ENE) 21:34:08 437.432
STRAND 1 31 Aug 21:28:52 21:33:43 44° 288° (WNW) 21:38:32 437.568
CUBEBUG 2 31 Aug 21:40:18 21:44:07 26° 70° (ENE) 21:48:06 437.445
ZACube-1 31 Aug 21:42:21 21:45:03 16° 67° (ENE) 21:47:57 437.345
FUNcube-1 31 Aug 21:47:32 21:50:29 18° 68° (ENE) 21:53:37 145.935
UWE-3 31 Aug 21:47:47 21:51:26 25° 70° (ENE) 21:55:15 435.000/436.395/437.385
CINEMA 3 31 Aug 21:47:52 21:52:30 72° 76° (ENE) 21:57:23 145.822/145.860
DELFI C3 31 Aug 21:52:49 21:55:34 18° 69° (ENE) 21:58:25 145.870
CUTE 1.7 + AOD 2 31 Aug 21:53:23 21:57:36 55° 260° (W) 22:01:50 437.475
BRITE-PL 31 Aug 21:58:19 22:00:17 12° 273° (W) 22:02:03 437.365/2234.400
CANX-2 31 Aug 22:07:46 22:11:41 33° 263° (W) 22:15:35 2200.000
PRISM 31 Aug 22:15:41 22:18:05 15° 293° (WNW) 22:20:20 437.425
HO-68 31 Aug 22:24:09 22:30:45 38° 263° (W) 22:37:18 435.675
HUMSAT D 31 Aug 22:28:11 22:31:07 19° 69° (ENE) 22:34:13 437.325/437.525
GOMX 1 31 Aug 22:28:42 22:30:00 11° 274° (W) 22:31:02 467.674
DX 1 31 Aug 22:29:17 22:30:24 11° 65° (ENE) 22:31:46 434.975-435.025
SEEDS 31 Aug 22:29:50 22:33:28 26° 265° (W) 22:37:02 437.485
Oscar 11 31 Aug 22:33:50 22:38:11 88° 255° (WSW) 22:42:34 145.826/435.025
UKube-1 31 Aug 22:41:04 22:43:08 14° 66° (ENE) 22:45:23 .
DOVE 4 31 Aug 22:41:31 22:43:59 14° 272° (W) 22:46:16 437.250
AISAT 31 Aug 22:50:14 22:52:00 13° 65° (ENE) 22:53:59 437.250
COMPASS 1 31 Aug 22:52:37 22:55:41 19° 267° (W) 22:58:39 437.405
RS-15 31 Aug 22:59:03 23:06:01 17° 13° (NNE) 23:13:25 29.354- 29.394
AAUSAT CUBESAT 2 31 Aug 23:03:11 23:06:02 17° 268° (W) 23:08:44 437.432
UNISAT 6 31 Aug 23:03:57 23:05:09 11° 88° (E) 23:06:39 437.425
Cosmos 2491 31 Aug 23:13:54 23:20:21 22° 277° (W) 23:26:25 435.465 / 435.565
VELOX 1 31 Aug 23:16:38 23:20:04 23° 69° (ENE) 23:23:37 145.980
ZACube-1 31 Aug 23:16:40 23:21:02 46° 262° (W) 23:25:28 437.345
CUBEBUG 2 31 Aug 23:16:43 23:20:43 28° 265° (W) 23:24:45 437.445
YUBILEINY 31 Aug 23:17:00 23:25:23 46° 285° (WNW) 23:33:46 435.215
FUNcube-1 31 Aug 23:22:12 23:26:29 41° 263° (W) 23:30:50 145.935
UWE-3 31 Aug 23:23:47 23:27:50 30° 265° (W) 23:31:55 435.000/436.395/437.385
DELFI C3 31 Aug 23:26:48 23:30:25 30° 264° (W) 23:34:01 145.870
CINEMA 3 31 Aug 23:29:42 23:30:23 10° 274° (W) 23:30:42 145.822/145.860
TIGRISAT 31 Aug 23:30:38 23:34:09 22° 93° (E) 23:37:42 435.000
ANTELSAT 31 Aug 23:47:13 23:51:24 36° 97° (E) 23:55:30 437.575/2403.000
Cosmos 2504 01 Sep 00:01:23 00:09:04 52° 90° (E) 00:17:16 435.465 / 435.565
DX 1 01 Sep 00:01:53 00:06:10 63° 259° (W) 00:10:30 434.975-435.025
HUMSAT D 01 Sep 00:02:39 00:06:37 35° 263° (W) 00:10:35 437.325/437.525
50 SAT 01 Sep 00:05:23 00:09:20 77° 258° (WSW) 00:13:19 437.505
ESTCUBE 1 01 Sep 00:10:16 00:14:43 69° 75° (ENE) 00:19:11 437.505/2401.250
POLYITAN 1 01 Sep 00:11:56 00:15:20 23° 94° (E) 00:18:48 437.675
AUBIESAT-1 01 Sep 00:12:56 00:16:28 34° 101° (ESE) 00:19:47 437.475
POPSAT HIP 1 01 Sep 00:14:30 00:17:58 24° 95° (E) 00:21:28 437.405
UKube-1 01 Sep 00:14:41 00:18:52 49° 260° (W) 00:23:05 .
DUCHIFAT 1 01 Sep 00:15:02 00:18:26 23° 94° (E) 00:21:53 145.980
M-CUBED/EXP-1 PRIME 01 Sep 00:18:04 00:21:54 50° 104° (ESE) 00:25:26 437.505
SPROUT 01 Sep 00:21:12 00:24:23 21° 69° (ENE) 00:27:43 437.525
BUGSAT 1 01 Sep 00:23:14 00:26:04 18° 92° (E) 00:29:03 437.445
AISAT 01 Sep 00:23:48 00:28:07 57° 260° (W) 00:32:30 437.250
CUBEBUG 1 01 Sep 00:24:26 00:28:44 82° 78° (ENE) 00:33:06 437.445
QB50P2 01 Sep 00:31:02 00:35:04 39° 98° (E) 00:39:05 145.880/145.840
NANOSAT C BR1 01 Sep 00:32:05 00:36:05 38° 98° (E) 00:40:04 145.865
UNISAT 6 01 Sep 00:37:55 00:42:27 60° 285° (WNW) 00:46:49 437.425
QB50P1 01 Sep 00:45:34 00:49:49 56° 100° (E) 00:54:01 145.935-145.965
CUSAT 1 01 Sep 00:50:43 00:54:15 43° 91° (E) 00:58:54 437.405
VELOX 1 01 Sep 00:52:41 00:56:30 28° 264° (W) 01:00:17 145.980
BEESAT 3 01 Sep 00:56:08 01:00:06 58° 57° (ENE) 01:04:01 437.485
TIGRISAT 01 Sep 01:06:55 01:10:57 30° 289° (WNW) 01:14:48 435.000
BEESAT 2 01 Sep 01:08:11 01:12:11 59° 57° (ENE) 01:16:07 435.950
RS-15 01 Sep 01:12:01 01:22:58 43° 45° (NE) 01:34:27 29.354- 29.394
DANDE 01 Sep 01:19:06 01:22:18 50° 94° (E) 01:26:30 436.750
TISAT 1 01 Sep 01:24:06 01:28:15 63° 75° (ENE) 01:32:26 437.305
ANTELSAT 01 Sep 01:24:35 01:27:56 20° 292° (WNW) 01:31:05 437.575/2403.000
PCSat 01 Sep 01:37:14 01:40:25 17° 106° (ESE) 01:43:50 145.827
ITUPSAT 1 01 Sep 01:42:25 01:45:24 17° 66° (ENE) 01:48:33 437.325
AIST 2 01 Sep 01:44:44 01:48:23 29° 52° (NE) 01:52:01 435.215
POLYITAN 1 01 Sep 01:47:32 01:51:13 27° 289° (WNW) 01:54:48 437.675
AUBIESAT-1 01 Sep 01:48:35 01:50:53 15° 299° (WNW) 01:52:58 437.475
POPSAT HIP 1 01 Sep 01:50:09 01:53:46 26° 290° (WNW) 01:57:19 437.405
DUCHIFAT 1 01 Sep 01:50:34 01:54:12 26° 289° (WNW) 01:57:44 145.980
Cosmos 2504 01 Sep 01:54:31 02:01:40 32° 290° (WNW) 02:08:57 435.465 / 435.565
M-CUBED/EXP-1 PRIME 01 Sep 01:54:52 01:56:11 11° 301° (WNW) 01:57:18 437.505
SPROUT 01 Sep 01:56:32 02:00:19 30° 264° (W) 02:04:05 437.525
BUGSAT 1 01 Sep 01:57:46 02:01:39 34° 288° (WNW) 02:05:30 437.445
QB50P2 01 Sep 02:07:51 02:10:39 17° 292° (WNW) 02:13:19 145.880/145.840
NANOSAT C BR1 01 Sep 02:08:46 02:11:38 17° 292° (WNW) 02:14:20 145.865
GONETS M04 01 Sep 02:12:39 02:16:29 14° 79° (E) 02:20:58
SO-50 01 Sep 02:14:00 02:18:46 83° 300° (WNW) 02:23:42 436.795
BEESAT 01 Sep 02:14:04 02:18:24 36° 71° (ENE) 02:22:47 436.000
QB50P1 01 Sep 02:23:28 02:25:13 12° 294° (WNW) 02:26:46 145.935-145.965
CUSAT 1 01 Sep 02:35:28 02:37:33 13° 300° (WNW) 02:39:40 437.405
BEESAT 3 01 Sep 02:37:05 02:37:33 10° 251° (WSW) 02:37:47 437.485
SWISSCUBE 01 Sep 02:39:33 02:44:18 76° 77° (ENE) 02:49:05 437.505
Oscar 19 01 Sep 02:42:16 02:47:05 38° 97° (E) 02:51:55 437.125/150
BEESAT 2 01 Sep 02:49:07 02:49:45 10° 251° (WSW) 02:50:08 435.950
STARS 01 Sep 03:07:40 03:09:08 12° 65° (ENE) 03:10:50 437.465
VERMONT LUNAR 01 Sep 03:13:38 03:15:02 13° 146° (SE) 03:16:31 437.305
PCSat 01 Sep 03:18:02 03:23:23 60° 300° (WNW) 03:28:45 145.827
ITUPSAT 1 01 Sep 03:18:21 03:22:58 47° 261° (W) 03:27:34 437.325
AIST 2 01 Sep 03:23:28 03:26:49 23° 248° (WSW) 03:30:04 435.215
KKS-1 01 Sep 03:23:56 03:27:47 30° 71° (ENE) 03:31:44 437.445
Gurwin Techsat 1B 01 Sep 03:24:11 03:28:45 30° 95° (E) 03:33:23 435.225
RS-15 01 Sep 03:24:25 03:36:06 61° 246° (WSW) 03:48:00 29.354- 29.394
ITAMSAT 1 01 Sep 03:41:23 03:46:04 34° 97° (E) 03:50:48 435.822/435.867
BEESAT 01 Sep 03:52:44 03:56:22 21° 267° (W) 03:59:52 436.000
JAS-2 01 Sep 03:54:46 04:00:37 30° 91° (E) 04:05:59 435.910
SO-50 01 Sep 03:57:55 04:00:10 13° 321° (NW) 04:02:16 436.795
GONETS M04 01 Sep 04:03:31 04:12:12 86° 95° (E) 04:20:57
Oscar 19 01 Sep 04:22:06 04:26:14 24° 293° (WNW) 04:30:15 437.125/150
HORYU 2 01 Sep 04:30:55 04:31:43 11° 89° (E) 04:32:48 437.375
STARS 01 Sep 04:40:43 04:45:05 62° 259° (W) 04:49:29 437.465
Cosmos 2499 01 Sep 04:48:00 04:55:47 45° 89° (E) 05:04:04 435.465 / 435.565
VERMONT LUNAR 01 Sep 04:48:09 04:51:07 69° 159° (SSE) 04:54:06 437.305
KKS-1 01 Sep 05:00:57 05:04:28 22° 266° (W) 05:07:53 437.445
Gurwin Techsat 1B 01 Sep 05:04:03 05:08:43 31° 291° (WNW) 05:13:18 435.225
MOZHAYETS 4 01 Sep 05:13:17 05:17:51 65° 75° (ENE) 05:22:26
AO-7 01 Sep 05:14:05 05:21:57 46° 100° (E) 05:29:51 29.400- 29.500
ITAMSAT 1 01 Sep 05:21:09 05:25:27 26° 292° (WNW) 05:29:40 435.822/435.867
PHONESAT 2.4 01 Sep 05:35:20 05:37:38 17° 147° (SSE) 05:40:00 2401.200-2431.200
JAS-2 01 Sep 05:39:23 05:45:53 42° 292° (WNW) 05:51:36 435.910
O/OREOS (USA 219) 01 Sep 05:40:59 05:45:26 46° 65° (ENE) 05:49:51 437.305
RS-15 01 Sep 05:44:49 05:46:48 10° 262° (W) 05:47:15 29.354- 29.394
HORYU 2 01 Sep 06:04:25 06:08:50 61° 286° (WNW) 06:13:12 437.375
GONETS M04 01 Sep 06:04:34 06:10:23 18° 297° (WNW) 06:15:44
VERMONT LUNAR 01 Sep 06:24:45 06:27:39 45° 355° (N) 06:30:32 437.305
Cosmos 2499 01 Sep 06:41:21 06:49:06 38° 288° (WNW) 06:57:05 435.465 / 435.565
MOZHAYETS 4 01 Sep 06:54:26 06:55:35 11° 272° (W) 06:56:26
Cubesat XI-IV 01 Sep 07:02:22 07:06:00 19° 92° (E) 07:09:50 437.490
STRAND 1 01 Sep 07:04:46 07:08:44 24° 68° (ENE) 07:12:49 437.568
AO-7 01 Sep 07:07:09 07:14:37 38° 297° (WNW) 07:21:56 29.400- 29.500
CUBESAT XI-V 01 Sep 07:07:44 07:12:21 89° 257° (WSW) 07:16:57 437.345
PHONESAT 2.4 01 Sep 07:11:48 07:15:12 80° 162° (SSE) 07:18:37 2401.200-2431.200
O/OREOS (USA 219) 01 Sep 07:21:47 07:24:30 15° 259° (W) 07:27:01 437.305
PRISM 01 Sep 07:27:38 07:30:51 23° 70° (ENE) 07:34:09 437.425
YUBILEINY 01 Sep 07:34:59 07:39:19 15° 60° (ENE) 07:44:16 435.215
CUTE-I 01 Sep 07:46:07 07:51:18 51° 99° (E) 07:56:29 437.470
VERMONT LUNAR 01 Sep 08:01:20 08:04:17 61° 12° (NNE) 08:07:14 437.305
Cosmos 2491 01 Sep 08:22:51 08:26:39 14° 79° (E) 08:31:06 435.465 / 435.565
BRITE-PL 01 Sep 08:23:20 08:27:45 24° 93° (E) 08:32:23 437.365/2234.400
Cubesat XI-IV 01 Sep 08:41:17 08:46:24 48° 288° (WNW) 08:51:30 437.490
STRAND 1 01 Sep 08:43:03 08:47:46 37° 262° (W) 08:52:27 437.568
PHONESAT 2.4 01 Sep 08:49:54 08:53:13 49° 357° (N) 08:56:33 2401.200-2431.200
GOMX 1 01 Sep 08:50:35 08:55:03 26° 93° (E) 08:59:38 467.674
PRISM 01 Sep 09:02:49 09:06:12 24° 265° (W) 09:09:32 437.425
DOVE 4 01 Sep 09:02:57 09:06:43 20° 91° (E) 09:10:37 437.250
ISS 01 Sep 09:03:44 09:06:43 35° 134° (SE) 09:09:44 145.825
AIST 1 01 Sep 09:19:35 09:23:49 74° 277° (W) 09:28:05
CUTE-I 01 Sep 09:27:16 09:31:02 19° 294° (WNW) 09:34:37 437.470
YUBILEINY 01 Sep 09:29:00 09:37:53 81° 82° (E) 09:46:41 435.215
VERMONT LUNAR 01 Sep 09:37:55 09:40:37 31° 207° (SSW) 09:43:18 437.305
CUTE 1.7 + AOD 2 01 Sep 09:40:52 09:44:28 27° 95° (E) 09:48:05 437.475
CINEMA 3 01 Sep 09:45:38 09:49:24 22° 92° (E) 09:53:11 145.822/145.860
Cosmos 2504 01 Sep 09:52:47 09:56:44 14° 60° (ENE) 10:01:09 435.465 / 435.565
HO-68 01 Sep 09:53:15 10:00:08 47° 99° (E) 10:07:02 435.675
CANX-2 01 Sep 09:54:36 09:58:39 45° 98° (E) 10:02:42 2200.000
BRITE-PL 01 Sep 10:01:09 10:06:22 43° 288° (WNW) 10:11:42 437.365/2234.400
Cosmos 2491 01 Sep 10:13:41 10:22:24 85° 94° (E) 10:31:09 435.465 / 435.565
SEEDS 01 Sep 10:15:15 10:19:23 56° 100° (E) 10:23:27 437.485
Oscar 11 01 Sep 10:24:04 10:27:05 19° 93° (E) 10:30:13 145.826/435.025
PCSat 01 Sep 10:27:05 10:28:41 11° 41° (NE) 10:30:33 145.827
TIGRISAT 01 Sep 10:27:52 10:30:53 18° 67° (ENE) 10:34:06 435.000
PHONESAT 2.4 01 Sep 10:27:56 10:31:20 71° 15° (NNE) 10:34:43 2401.200-2431.200
GOMX 1 01 Sep 10:28:10 10:33:14 39° 288° (WNW) 10:38:16 467.674
COMPASS 1 01 Sep 10:36:24 10:40:34 79° 101° (ESE) 10:44:41 437.405
DOVE 4 01 Sep 10:39:36 10:44:42 47° 287° (WNW) 10:49:42 437.250
ISS 01 Sep 10:40:28 10:43:11 24° 330° (NNW) 10:45:54 145.825
ANTELSAT 01 Sep 10:44:12 10:48:05 27° 70° (ENE) 10:52:04 437.575/2403.000
AAUSAT CUBESAT 2 01 Sep 10:46:12 10:50:21 86° 101° (ESE) 10:54:29 437.432
SO-50 01 Sep 10:47:32 10:52:21 52° 55° (NE) 10:57:04 436.795
AUBIESAT-1 01 Sep 10:57:11 11:01:36 40° 68° (ENE) 11:05:59 437.475
M-CUBED/EXP-1 PRIME 01 Sep 11:02:41 11:07:21 55° 69° (ENE) 11:12:00 437.505
POLYITAN 1 01 Sep 11:04:07 11:06:23 15° 67° (ENE) 11:08:50 437.675
POPSAT HIP 1 01 Sep 11:06:25 11:08:46 15° 67° (ENE) 11:11:18 437.405
DUCHIFAT 1 01 Sep 11:06:36 11:08:48 14° 67° (ENE) 11:11:11 145.980
DELFI C3 01 Sep 11:07:13 11:10:55 36° 97° (E) 11:14:38 145.870
ZACube-1 01 Sep 11:07:24 11:11:35 38° 97° (E) 11:15:41 437.345
CUBEBUG 2 01 Sep 11:09:07 11:13:48 74° 101° (E) 11:18:19 437.445
FUNcube-1 01 Sep 11:12:31 11:16:46 43° 98° (E) 11:20:56 145.935
UWE-3 01 Sep 11:15:08 11:19:42 66° 101° (E) 11:24:06 435.000/436.395/437.385
CUTE 1.7 + AOD 2 01 Sep 11:16:57 11:20:14 22° 290° (WNW) 11:23:25 437.475
CINEMA 3 01 Sep 11:22:06 11:26:43 37° 288° (WNW) 11:31:09 145.822/145.860
QB50P2 01 Sep 11:22:25 11:25:46 23° 70° (ENE) 11:29:13 145.880/145.840
NANOSAT C BR1 01 Sep 11:23:07 11:26:23 23° 70° (ENE) 11:29:46 145.865
CUSAT 1 01 Sep 11:26:27 11:33:55 46° 74° (ENE) 11:41:46 437.405
YUBILEINY 01 Sep 11:28:00 11:33:47 19° 279° (W) 11:39:03 435.215
CANX-2 01 Sep 11:31:57 11:34:13 14° 293° (WNW) 11:36:18 2200.000
UNISAT 6 01 Sep 11:34:11 11:38:52 88° 254° (WSW) 11:43:37 437.425
QB50P1 01 Sep 11:36:27 11:40:12 32° 72° (ENE) 11:44:03 145.935-145.965
HO-68 01 Sep 11:41:25 11:47:39 32° 296° (WNW) 11:53:43 435.675
Cosmos 2504 01 Sep 11:42:08 11:50:40 80° 82° (E) 11:58:37 435.465 / 435.565
50 SAT 01 Sep 11:44:01 11:45:46 13° 91° (E) 11:47:42 437.505
HUMSAT D 01 Sep 11:48:20 11:52:21 41° 98° (E) 11:56:18 437.325/437.525
DX 1 01 Sep 11:52:33 11:56:09 25° 95° (E) 11:59:48 434.975-435.025
SEEDS 01 Sep 11:53:17 11:54:43 11° 294° (WNW) 11:55:55 437.485
DANDE 01 Sep 11:57:34 12:05:06 54° 77° (ENE) 12:13:27 436.750
Oscar 11 01 Sep 11:59:29 12:03:21 32° 288° (WNW) 12:07:10 145.826/435.025
TIGRISAT 01 Sep 12:02:50 12:07:18 44° 262° (W) 12:11:49 435.000
UKube-1 01 Sep 12:04:10 12:07:59 30° 97° (E) 12:11:49 .
ESTCUBE 1 01 Sep 12:06:00 12:08:50 17° 92° (E) 12:11:49 437.505/2401.250
PHONESAT 2.4 01 Sep 12:06:02 12:09:04 30° 209° (SSW) 12:12:04 2401.200-2431.200
PCSat 01 Sep 12:07:46 12:13:12 71° 60° (ENE) 12:18:36 145.827
Cosmos 2491 01 Sep 12:14:44 12:20:36 18° 297° (WNW) 12:25:58 435.465 / 435.565
CUBEBUG 1 01 Sep 12:16:10 12:19:04 18° 92° (E) 12:22:08 437.445
AISAT 01 Sep 12:16:29 12:20:26 30° 96° (E) 12:24:26 437.250
ANTELSAT 01 Sep 12:20:44 12:24:47 28° 265° (W) 12:28:48 437.575/2403.000
SO-50 01 Sep 12:29:16 12:32:30 17° 250° (WSW) 12:35:30 436.795
AUBIESAT-1 01 Sep 12:32:50 12:36:23 20° 262° (W) 12:39:49 437.475
POLYITAN 1 01 Sep 12:37:49 12:41:55 45° 261° (W) 12:46:03 437.675
M-CUBED/EXP-1 PRIME 01 Sep 12:39:30 12:42:24 15° 265° (W) 12:45:06 437.505
DUCHIFAT 1 01 Sep 12:40:11 12:44:14 45° 262° (W) 12:48:20 145.980
POPSAT HIP 1 01 Sep 12:40:15 12:44:18 43° 262° (W) 12:48:23 437.405
DELFI C3 01 Sep 12:43:21 12:45:42 15° 292° (WNW) 12:47:54 145.870
VELOX 1 01 Sep 12:44:11 12:48:37 61° 101° (E) 12:53:02 145.980
ZACube-1 01 Sep 12:44:34 12:47:38 18° 292° (WNW) 12:50:31 437.345
BUGSAT 1 01 Sep 12:45:18 12:49:19 64° 259° (W) 12:53:25 437.445
CUBEBUG 2 01 Sep 12:48:38 12:49:52 11° 296° (WNW) 12:50:51 437.445
FUNcube-1 01 Sep 12:49:54 12:52:44 16° 293° (WNW) 12:55:22 145.935
UWE-3 01 Sep 12:53:59 12:55:40 12° 295° (WNW) 12:57:06 435.000/436.395/437.385
QB50P2 01 Sep 12:57:56 13:01:34 26° 265° (W) 13:05:09 145.880/145.840
NANOSAT C BR1 01 Sep 12:58:27 13:02:06 27° 265° (W) 13:05:42 145.865
CUSAT 1 01 Sep 13:09:10 13:16:24 39° 269° (W) 13:23:41 437.405
TISAT 1 01 Sep 13:12:39 13:14:00 12° 90° (E) 13:15:36 437.305
QB50P1 01 Sep 13:13:06 13:16:10 19° 267° (W) 13:19:07 145.935-145.965
50 SAT 01 Sep 13:16:55 13:20:30 37° 287° (WNW) 13:24:02 437.505
HUMSAT D 01 Sep 13:25:14 13:27:44 15° 293° (WNW) 13:30:04 437.325/437.525
DX 1 01 Sep 13:28:39 13:32:20 26° 290° (WNW) 13:35:57 434.975-435.025
Cosmos 2504 01 Sep 13:36:26 13:41:54 18° 280° (W) 13:46:44 435.465 / 435.565
UKube-1 01 Sep 13:40:35 13:43:57 22° 291° (WNW) 13:47:13 .
DANDE 01 Sep 13:41:12 13:48:04 33° 270° (W) 13:55:13 436.750
ESTCUBE 1 01 Sep 13:41:41 13:45:54 40° 287° (WNW) 13:50:05 437.505/2401.250
SPROUT 01 Sep 13:44:23 13:48:38 52° 99° (E) 13:52:53 437.525
CUBEBUG 1 01 Sep 13:51:30 13:55:36 37° 287° (WNW) 13:59:39 437.445
AISAT 01 Sep 13:53:19 13:56:52 23° 291° (WNW) 14:00:18 437.250
PCSat 01 Sep 13:53:21 13:56:05 13° 255° (WSW) 13:58:28 145.827
Oscar 19 01 Sep 13:57:05 14:01:58 46° 72° (ENE) 14:06:57 437.125/150
JAS-2 01 Sep 14:05:59 14:09:42 15° 58° (ENE) 14:13:54 435.910
GONETS M04 01 Sep 14:16:29 14:24:30 39° 73° (ENE) 14:32:40
BEESAT 01 Sep 14:19:07 14:19:43 10° 88° (E) 14:20:39 436.000
VELOX 1 01 Sep 14:22:49 14:24:42 12° 295° (WNW) 14:26:20 145.980
AO-7 01 Sep 14:26:25 14:27:32 10° 48° (NE) 14:29:14 29.400- 29.500
SWISSCUBE 01 Sep 14:42:33 14:46:11 22° 94° (E) 14:49:57 437.505
Gurwin Techsat 1B 01 Sep 14:43:16 14:48:08 39° 71° (ENE) 14:53:05 435.225
Cosmos 2499 01 Sep 14:44:21 14:48:03 14° 58° (ENE) 14:52:16 435.465 / 435.565
TISAT 1 01 Sep 14:45:57 14:50:08 52° 286° (WNW) 14:54:17 437.305
BEESAT 3 01 Sep 14:47:48 14:50:21 17° 111° (ESE) 14:53:04 437.485
ITAMSAT 1 01 Sep 14:57:26 15:02:16 43° 72° (ENE) 15:07:11 435.822/435.867
BEESAT 2 01 Sep 15:00:45 15:03:25 17° 111° (ESE) 15:06:14 435.950
JUGNU 01 Sep 15:07:34 15:10:16 13° 178° (S) 15:12:58 437.505
ITUPSAT 1 01 Sep 15:20:41 15:25:19 50° 99° (E) 15:29:57 437.325
SPROUT 01 Sep 15:22:12 15:24:18 13° 294° (WNW) 15:26:11 437.525
ISS 01 Sep 15:32:59 15:35:41 24° 29° (NNE) 15:38:24 145.825
RS-15 01 Sep 15:36:04 15:44:09 26° 104° (ESE) 15:52:54 29.354- 29.394
Oscar 19 01 Sep 15:37:55 15:41:37 19° 268° (W) 15:45:10 437.125/150
JAS-2 01 Sep 15:45:59 15:53:35 74° 74° (ENE) 16:01:28 435.910
BEESAT 01 Sep 15:53:24 15:58:09 70° 285° (WNW) 16:02:52 436.000
AO-7 01 Sep 16:10:42 16:18:41 54° 67° (ENE) 16:26:44 29.400- 29.500
GONETS M04 01 Sep 16:13:17 16:21:26 43° 271° (W) 16:29:29
SRMSAT 01 Sep 16:19:07 16:21:26 12° 174° (S) 16:23:48 437.500
SWISSCUBE 01 Sep 16:19:50 16:24:08 34° 289° (WNW) 16:28:22 437.505
Gurwin Techsat 1B 01 Sep 16:24:01 16:28:17 23° 267° (W) 16:32:25 435.225
BEESAT 3 01 Sep 16:24:12 16:28:01 38° 306° (NW) 16:31:50 437.485
STARS 01 Sep 16:32:42 16:36:29 27° 96° (E) 16:40:18 437.465
Cosmos 2499 01 Sep 16:34:27 16:43:07 77° 81° (E) 16:51:08 435.465 / 435.565
BEESAT 2 01 Sep 16:37:24 16:41:12 37° 306° (NW) 16:45:03 435.950
ITAMSAT 1 01 Sep 16:38:10 16:42:01 20° 267° (W) 16:45:42 435.822/435.867
KKS-1 01 Sep 16:52:41 16:57:12 82° 103° (ESE) 17:01:40 437.445
JUGNU 01 Sep 16:56:34 16:58:26 11° 188° (S) 17:00:15 437.505
ITUPSAT 1 01 Sep 16:59:52 17:02:50 16° 294° (WNW) 17:05:37 437.325
HORYU 2 01 Sep 17:00:16 17:04:46 86° 256° (WSW) 17:09:18 437.375
ISS 01 Sep 17:09:09 17:12:10 35° 226° (SW) 17:15:09 145.825
